Wind_Speed
8 7 6 5 4 3 3 2 1 2 3 4 6 12 20 29 27 22 16 19 12 9 7 5 6 5 5 5 6 8 14 14 8 7 9 6 7 9 10 10 8 8 7 5 9
9 8 6 5 5 5 3 2 3 3 3 3 3 5 9 19 29 24 28 22 16 13 10 9 8 7 7 6 6 6 5 4 5 4 5 4 1 5 6 5 6 9 6 4 5
9 9 7 6 6 7 4 4 4 4 4 4 3 4 4 6 13 18 29 28 21 17 14 12 9 11 11 6 7 9 5 1 4 2 3 3 2 1 1 13 4 2 8 3 3
11 10 9 8 7 7 5 5 5 5 5 5 4 3 3 8 3 19 21 23 27 22 18 15 11 12 10 9 7 9 4 1 3 1 2 2 2 2 1 6 4 4 6 2 2
12 11 11 9 9 7 7 6 6 6 6 6 6 5 4 8 8 8 9 12 17 19 18 12 11 11 13 10 9 9 5 4 3 3 2 1 1 2 1 2 3 7 8 8 3
14 13 12 11 10 9 8 7 7 7 7 7 7 7 6 4 17 9 7 8 11 13 10 12 11 13 11 9 10 7 6 5 4 4 6 5 5 5 4 5 6 9 12 11 11
17 16 14 13 12 10 9 9 8 7 7 7 8 9 9 10 13 9 6 8 12 12 8 12 11 10 9 10 12 7 10 10 8 4 6 10 10 7 5 4 7 8 10 11 9
20 19 17 16 14 13 11 10 10 9 9 8 8 8 7 13 12 10 8 6 10 12 15 16 17 13 12 9 11 13 14 14 4 3 3 9 9 3 2 2 6 9 13 14 16
22 22 20 19 17 16 13 12 12 11 10 9 8 8 6 11 12 12 11 6 8 9 11 16 16 13 13 14 16 16 9 14 7 2 4 7 13 0 2 3 6 9 14 16 17
22 21 21 20 19 18 16 14 13 13 12 10 10 7 12 7 10 14 15 14 9 7 8 10 11 15 17 19 23 19 18 19 5 4 6 9 10 10 2 5 7 9 13 15 18
21 20 20 20 19 18 16 13 9 12 16 12 6 11 9 9 11 11 13 15 13 10 9 10 14 20 19 18 20 15 11 6 6 8 8 8 9 5 5 6 7 9 13 13 15
19 20 19 19 18 17 15 14 14 15 16 15 18 16 16 15 8 10 11 10 12 13 12 12 14 14 18 13 14 14 13 13 11 11 10 10 9 6 7 8 9 11 11 10 14
18 18 18 17 16 16 16 15 14 14 17 13 18 17 15 14 12 9 12 12 11 14 15 16 8 9 12 18 14 16 17 16 11 5 10 11 17 10 7 5 6 8 4 10 16
20 19 17 16 16 14 15 13 12 10 9 15 17 17 19 15 16 15 14 12 13 14 15 17 17 10 13 16 14 18 17 15 10 11 19 4 13 10 4 2 3 4 2 5 13
19 20 19 18 16 15 16 13 9 6 7 10 12 20 14 18 4 15 16 14 12 12 12 15 15 17 15 15 14 15 7 9 12 15 15 13 11 4 4 4 3 3 5 8 9
18 19 19 19 18 19 16 13 10 8 12 7 11 14 17 20 15 11 15 16 11 13 14 17 10 15 17 15 15 12 10 10 11 16 20 17 6 13 7 3 4 2 6 5 6
17 17 17 18 22 19 17 14 10 15 9 11 10 12 16 17 22 17 15 20 18 15 17 15 17 13 14 14 12 15 14 16 13 14 11 7 5 7 1 2 1 1 6 5 5
15 16 17 18 19 18 18 15 16 16 21 7 9 11 14 17 19 21 17 21 21 18 18 18 18 19 15 18 13 19 19 18 11 7 8 7 6 6 3 1 3 7 3 2 3
12 15 16 18 19 19 20 21 20 17 15 9 12 13 16 14 16 23 23 22 21 22 17 10 17 13 18 14 16 16 21 17 15 13 12 9 11 5 4 4 5 5 2 2 3
9 11 15 17 19 20 18 24 18 14 8 10 14 14 18 18 19 19 24 22 22 19 18 12 13 16 16 14 15 14 12 15 15 11 13 8 5 11 7 8 7 4 5 3 6
8 3 12 15 18 21 21 20 22 13 14 11 13 17 18 9 15 20 20 20 20 20 18 19 11 15 14 18 18 16 14 15 18 10 8 1 17 9 8 7 6 6 8 7 8
9 4 11 13 16 17 19 17 18 17 12 13 10 10 12 11 13 19 18 15 20 21 20 22 15 20 15 17 19 22 16 20 18 15 14 18 14 8 8 7 7 7 8 6 6
6 9 13 13 11 15 18 17 17 12 14 15 16 15 10 12 11 11 15 7 11 16 18 19 18 17 20 13 16 19 20 15 14 17 13 16 7 11 8 6 5 8 7 10 11
6 4 6 14 13 12 17 16 18 14 16 16 15 15 15 13 11 8 15 12 13 13 17 19 22 19 21 21 18 19 21 23 23 21 20 18 18 15 3 5 4 7 9 10 11
5 8 9 8 13 13 12 8 16 16 13 14 18 19 16 16 15 14 15 11 11 17 17 18 18 22 23 20 11 10 16 20 23 25 23 11 18 13 8 8 3 10 11 11 11
10 6 9 6 9 12 12 12 12 12 14 13 17 14 18 21 16 9 11 17 17 16 16 20 19 19 23 22 20 15 16 15 20 23 21 15 15 19 8 8 8 11 11 10 8
10 9 8 10 8 8 11 10 10 12 14 15 9 15 15 15 20 19 13 10 11 9 11 19 22 22 24 24 24 23 22 17 18 20 18 19 14 15 6 6 7 8 7 8 6
Wind_Direction
189 189 182 184 180 201 187 159 201 234 248 247 243 242 233 229 226 227 240 231 234 245 243 246 266 309 340 352 326 305 340 315 94 66 101 83 91 71 71 59 72 63 75 56 34
195 196 197 197 208 217 201 210 227 241 252 257 253 240 233 227 231 232 241 232 230 237 251 280 291 291 286 311 302 279 157 1 75 72 28 50 94 74 112 63 73 66 44 19 19
209 206 202 213 218 228 213 227 242 250 257 253 247 251 232 213 222 227 243 236 233 236 240 254 248 250 264 265 273 289 17 81 42 74 44 82 104 121 281 112 75 175 32 53 15
217 220 215 214 224 233 228 232 241 251 255 259 247 240 211 147 162 237 249 238 235 239 241 251 241 247 257 250 265 274 260 58 27 50 43 30 94 124 336 52 105 195 337 59 44
223 225 229 223 228 234 236 234 239 243 247 248 245 234 205 173 260 253 229 226 225 230 236 236 233 242 248 253 263 245 218 251 267 264 293 271 254 195 188 217 181 266 291 315 178
228 230 232 233 233 237 238 242 243 249 249 248 242 232 218 232 243 257 225 222 218 216 228 226 224 222 238 234 245 252 239 246 246 265 257 256 250 216 183 219 213 282 269 288 191
233 234 234 235 239 238 239 243 244 250 254 253 247 239 232 238 240 238 225 218 217 210 211 230 224 232 241 240 249 243 242 229 222 241 255 269 257 265 200 216 222 239 238 237 244
240 240 239 239 242 243 241 243 245 245 249 249 249 246 224 245 235 234 226 240 232 224 220 231 223 230 234 250 251 238 241 258 147 269 249 268 88 300 159 276 232 218 212 212 259
242 245 247 247 247 249 248 246 250 247 246 247 246 247 247 248 239 232 225 215 238 238 244 231 225 230 235 238 240 225 245 301 148 344 276 268 289 200 307 246 249 230 219 214 224
243 244 247 250 252 255 256 251 249 252 248 244 246 247 257 240 229 234 230 227 230 233 253 245 235 228 228 224 239 232 232 201 237 265 296 277 263 271 281 261 271 247 232 218 221
243 244 246 248 250 253 257 258 270 287 248 217 255 218 250 245 245 236 234 231 231 240 228 238 227 224 227 227 246 295 293 307 286 277 286 292 286 272 271 267 273 270 247 232 224
242 243 243 245 247 249 251 245 246 235 247 242 235 231 234 240 224 222 222 217 225 228 231 231 231 224 233 247 244 244 259 257 265 267 271 283 289 230 253 256 275 287 265 237 219
242 241 241 241 242 242 244 247 247 250 259 252 240 234 239 237 225 228 220 215 223 226 224 234 235 212 232 235 242 242 249 255 261 239 266 266 263 198 226 262 298 305 245 238 206
243 242 240 238 238 235 240 241 245 249 261 242 243 238 227 227 239 213 221 208 221 226 229 238 232 246 237 227 230 249 247 248 259 253 273 246 302 201 202 286 331 342 91 190 198
243 240 237 234 237 227 230 228 226 220 264 185 203 219 212 207 228 214 209 213 217 231 217 236 229 230 226 229 230 243 251 230 241 258 266 279 251 200 208 175 355 4 129 144 196
239 237 234 230 230 230 223 215 203 214 244 214 213 214 204 211 211 194 207 208 223 229 237 228 238 229 227 235 233 230 237 241 246 254 258 247 253 304 71 24 343 323 140 95 68
234 234 230 224 223 222 214 199 214 231 213 228 218 206 210 215 209 215 215 212 212 214 227 233 235 227 210 222 224 218 220 230 224 222 245 137 239 297 82 358 337 130 135 78 78
230 228 226 222 219 213 203 191 232 230 231 213 206 211 214 213 218 215 217 218 221 224 258 217 212 218 214 214 212 219 227 250 282 270 209 154 241 217 174 62 103 127 109 81 55
234 228 222 218 213 208 195 208 217 228 230 230 230 230 227 221 220 215 220 224 223 220 233 242 239 218 214 220 218 222 224 243 288 270 289 267 172 222 192 184 160 154 135 265 320
232 226 229 214 210 204 201 218 219 223 212 233 232 234 231 215 217 218 215 223 221 222 224 249 261 212 206 210 220 233 231 224 233 270 257 256 225 145 175 180 176 171 181 264 310
223 200 233 215 205 200 209 219 223 247 230 238 237 240 230 245 215 220 222 227 223 222 223 220 234 221 198 215 216 214 234 235 263 251 311 117 305 116 141 163 182 185 204 266 291
209 201 244 209 197 209 216 214 225 221 238 221 223 217 234 231 230 230 219 218 226 216 220 216 228 245 219 236 226 243 231 226 245 230 259 287 151 220 168 161 184 195 197 202 226
171 240 229 200 198 216 213 221 227 218 222 222 229 227 224 221 235 226 220 209 210 206 218 210 224 234 240 202 227 234 232 232 244 254 256 252 144 172 171 157 156 195 282 286 274
180 215 241 207 210 213 223 234 233 237 221 218 218 221 222 226 227 223 225 239 226 208 218 216 229 233 244 228 245 213 231 234 236 241 241 228 171 183 208 160 201 282 303 289 279
194 213 196 236 221 216 224 223 224 226 239 227 235 228 223 231 230 231 234 231 241 226 222 220 233 236 248 257 272 216 223 231 230 231 241 215 290 120 173 157 191 292 301 286 279
163 208 218 231 204 206 226 222 232 232 227 230 232 226 232 226 220 237 241 234 229 229 226 224 234 242 250 247 249 235 245 230 223 229 235 256 199 243 234 304 299 297 296 280 276
218 207 194 229 230 217 227 229 230 230 237 231 230 227 223 220 225 234 250 246 231 227 223 221 231 237 247 239 240 232 235 221 219 222 234 238 162 143 156 277 287 287 280 279 262
Height
3191 3192 3192 3193 3193 3194 3194 3194 3194 3194 3194 3194 3193 3193 3194 3196 3199 3202 3203 3203 3204 3205 3207 3207 3207 3207 3207 3206 3205 3206 3205 3199 3200 3203 3202 3204 3205 3208 3207 3206 3206 3205 3205 3202 3198
3190 3191 3192 3193 3193 3194 3193 3194 3195 3194 3194 3194 3193 3193 3193 3195 3198 3201 3198 3202 3204 3205 3207 3207 3207 3208 3208 3208 3209 3208 3211 3203 3203 3204 3204 3204 3205 3207 3205 3206 3207 3205 3203 3200 3199
3190 3191 3191 3192 3193 3193 3193 3194 3195 3194 3194 3194 3193 3193 3193 3195 3198 3198 3195 3200 3203 3205 3207 3208 3209 3212 3211 3210 3209 3205 3207 3205 3204 3205 3206 3204 3206 3207 3201 3189 3206 3207 3202 3200 3199
3189 3190 3191 3191 3192 3193 3193 3193 3194 3194 3193 3194 3193 3194 3194 3196 3202 3195 3195 3197 3201 3203 3206 3207 3209 3211 3211 3210 3208 3207 3206 3206 3205 3206 3206 3206 3205 3206 3205 3202 3207 3205 3202 3200 3198
3187 3189 3190 3190 3192 3192 3193 3193 3193 3194 3193 3194 3194 3194 3195 3198 3198 3194 3194 3196 3199 3202 3204 3207 3209 3211 3210 3208 3209 3207 3206 3207 3206 3206 3206 3206 3205 3206 3206 3206 3206 3203 3201 3200 3198
3186 3187 3189 3189 3190 3191 3192 3193 3192 3193 3193 3193 3193 3194 3195 3198 3195 3194 3195 3196 3197 3201 3204 3205 3208 3209 3209 3208 3208 3206 3206 3206 3205 3205 3205 3204 3203 3203 3203 3206 3204 3202 3201 3199 3199
3184 3185 3187 3188 3189 3190 3191 3191 3191 3191 3192 3192 3193 3193 3194 3196 3193 3194 3195 3195 3196 3199 3203 3202 3204 3207 3209 3208 3207 3206 3206 3202 3201 3203 3203 3202 3202 3201 3202 3203 3203 3201 3200 3199 3198
3181 3183 3184 3186 3187 3188 3189 3189 3190 3190 3191 3192 3192 3192 3193 3191 3192 3193 3195 3196 3196 3197 3198 3199 3202 3205 3207 3207 3206 3204 3201 3197 3198 3202 3202 3203 3200 3195 3200 3201 3203 3202 3200 3199 3197
3178 3180 3181 3183 3184 3185 3186 3187 3188 3189 3190 3190 3191 3192 3194 3191 3192 3192 3194 3197 3198 3197 3197 3198 3200 3204 3206 3206 3203 3199 3196 3193 3199 3200 3202 3202 3198 3198 3199 3201 3203 3201 3199 3198 3195
3175 3176 3178 3179 3181 3182 3183 3185 3186 3187 3188 3188 3189 3192 3190 3191 3190 3190 3192 3194 3196 3199 3198 3198 3201 3203 3203 3202 3195 3192 3192 3193 3197 3200 3201 3199 3197 3197 3197 3200 3201 3201 3198 3197 3195
3171 3173 3174 3176 3177 3179 3182 3184 3187 3187 3185 3187 3189 3189 3187 3187 3188 3189 3190 3192 3194 3196 3199 3200 3201 3198 3198 3199 3195 3195 3194 3193 3197 3200 3201 3197 3197 3196 3198 3199 3199 3200 3198 3197 3199
3167 3169 3170 3172 3175 3177 3178 3180 3182 3183 3182 3183 3183 3183 3184 3185 3187 3188 3190 3194 3194 3195 3197 3200 3197 3196 3196 3196 3197 3199 3198 3198 3197 3199 3200 3196 3195 3194 3196 3197 3198 3197 3196 3195 3197
3163 3165 3167 3169 3172 3174 3175 3177 3178 3179 3179 3181 3179 3180 3183 3183 3185 3189 3188 3191 3193 3194 3195 3195 3195 3193 3196 3198 3199 3198 3198 3196 3196 3197 3197 3195 3190 3190 3195 3195 3195 3194 3192 3192 3194
3159 3161 3163 3166 3170 3171 3172 3175 3177 3178 3179 3177 3175 3176 3178 3180 3183 3185 3186 3191 3191 3192 3193 3193 3192 3193 3195 3196 3197 3196 3195 3196 3196 3197 3190 3192 3188 3188 3192 3194 3194 3194 3193 3191 3193
3155 3157 3159 3162 3166 3168 3171 3173 3175 3178 3176 3172 3171 3170 3176 3178 3181 3181 3184 3187 3188 3190 3191 3190 3190 3191 3193 3194 3195 3194 3193 3194 3195 3195 3193 3189 3189 3184 3188 3190 3193 3195 3193 3193 3190
3150 3152 3155 3157 3161 3164 3167 3171 3175 3180 3169 3167 3168 3168 3171 3174 3179 3180 3181 3184 3187 3187 3187 3186 3187 3188 3190 3191 3192 3193 3194 3194 3194 3191 3186 3185 3188 3184 3185 3189 3192 3193 3192 3190 3189
3146 3148 3151 3153 3156 3160 3164 3169 3175 3169 3165 3165 3166 3168 3169 3171 3174 3176 3178 3180 3182 3185 3183 3184 3184 3186 3187 3189 3190 3192 3191 3189 3187 3181 3178 3181 3187 3186 3188 3191 3192 3193 3191 3190 3189
3143 3145 3147 3149 3153 3157 3161 3168 3167 3163 3162 3162 3164 3165 3166 3168 3170 3172 3175 3176 3178 3179 3177 3177 3178 3181 3183 3185 3186 3187 3187 3182 3178 3174 3173 3180 3183 3184 3187 3190 3192 3192 3190 3189 3190
3140 3141 3143 3146 3150 3153 3158 3161 3160 3160 3161 3160 3163 3163 3162 3164 3167 3169 3171 3172 3174 3176 3178 3174 3175 3175 3179 3182 3184 3183 3185 3184 3181 3179 3177 3175 3179 3184 3187 3189 3192 3192 3189 3189 3189
3137 3139 3140 3143 3146 3150 3154 3155 3158 3158 3158 3160 3161 3160 3159 3160 3164 3164 3166 3168 3170 3173 3175 3175 3174 3173 3177 3180 3181 3181 3183 3184 3183 3180 3174 3172 3175 3174 3183 3185 3190 3191 3191 3188 3188
3136 3139 3138 3140 3143 3146 3149 3153 3155 3155 3157 3160 3159 3158 3158 3156 3158 3160 3163 3166 3167 3169 3172 3174 3175 3170 3174 3177 3177 3181 3180 3180 3175 3173 3167 3179 3182 3173 3179 3184 3187 3189 3189 3186 3186
3134 3140 3136 3137 3142 3144 3147 3150 3150 3152 3153 3156 3157 3158 3158 3158 3159 3159 3159 3161 3162 3165 3168 3170 3172 3170 3170 3172 3174 3175 3175 3178 3176 3177 3175 3174 3180 3182 3180 3183 3186 3187 3185 3186 3185
3133 3136 3133 3135 3140 3142 3145 3145 3146 3150 3151 3154 3156 3158 3158 3159 3160 3157 3158 3159 3161 3163 3165 3168 3169 3168 3169 3169 3173 3173 3174 3174 3174 3176 3174 3174 3174 3179 3180 3181 3183 3184 3184 3183 3183
3131 3135 3132 3132 3136 3137 3141 3142 3144 3144 3147 3150 3152 3154 3156 3157 3158 3157 3157 3158 3159 3162 3161 3164 3165 3166 3159 3163 3163 3166 3170 3171 3173 3171 3169 3168 3173 3176 3180 3178 3180 3181 3181 3181 3181
3129 3132 3129 3132 3134 3136 3137 3139 3141 3143 3143 3146 3148 3150 3153 3154 3155 3155 3157 3156 3157 3158 3160 3163 3164 3164 3162 3162 3160 3159 3165 3167 3169 3168 3167 3166 3172 3170 3172 3174 3177 3178 3178 3178 3178
3126 3128 3128 3131 3129 3133 3134 3136 3138 3139 3141 3142 3143 3146 3148 3150 3152 3152 3153 3153 3154 3155 3157 3160 3161 3162 3160 3160 3159 3161 3162 3162 3165 3165 3167 3168 3168 3171 3169 3169 3174 3176 3176 3175 3175
3122 3123 3126 3129 3130 3132 3132 3134 3135 3136 3137 3138 3141 3142 3144 3147 3148 3149 3150 3149 3151 3151 3154 3156 3158 3159 3156 3156 3156 3156 3159 3159 3162 3164 3165 3165 3164 3168 3167 3171 3174 3175 3174 3174 3174